TimeEDT,TemperatureF,Dew PointF,Humidity,Sea Level PressureIn,VisibilityMPH,Wind Direction,Wind SpeedMPH,Gust SpeedMPH,PrecipitationIn,Events,Conditions,WindDirDegrees,DateUTC
12:53 AM,35.1,28.9,78,30.12,10.0,NNW,5.8,-,N/A,,Overcast,340,2012-11-03 04:53:00
1:53 AM,34.0,28.0,79,30.14,10.0,NNE,10.4,-,N/A,,Overcast,20,2012-11-03 05:53:00
2:21 AM,33.8,26.6,75,30.10,10.0,North,10.4,-,N/A,,Scattered Clouds,350,2012-11-03 06:21:00
2:35 AM,33.8,26.6,75,30.11,10.0,North,6.9,-,N/A,,Mostly Cloudy,350,2012-11-03 06:35:00
2:53 AM,33.1,27.0,78,30.15,10.0,NNW,5.8,-,N/A,,Overcast,340,2012-11-03 06:53:00
3:53 AM,33.1,26.1,75,30.16,10.0,North,8.1,-,N/A,,Overcast,10,2012-11-03 07:53:00
4:53 AM,33.1,26.1,75,30.16,10.0,North,4.6,-,N/A,,Overcast,360,2012-11-03 08:53:00
5:53 AM,32.0,26.1,79,30.18,10.0,NE,5.8,-,N/A,,Overcast,40,2012-11-03 09:53:00
6:53 AM,32.0,26.1,79,30.19,10.0,NNE,3.5,-,0.00,,Overcast,30,2012-11-03 10:53:00
7:53 AM,30.9,25.0,79,30.19,10.0,NNE,5.8,-,N/A,,Overcast,30,2012-11-03 11:53:00
8:53 AM,30.9,26.1,82,30.20,10.0,NNE,3.5,-,N/A,,Overcast,30,2012-11-03 12:53:00
9:07 AM,30.2,26.6,86,30.17,10.0,North,3.5,-,N/A,,Overcast,360,2012-11-03 13:07:00
9:53 AM,32.0,25.0,75,30.22,10.0,NNW,5.8,-,N/A,,Overcast,330,2012-11-03 13:53:00
10:53 AM,32.0,25.0,75,30.23,10.0,Variable,4.6,-,N/A,,Overcast,0,2012-11-03 14:53:00
11:53 AM,34.0,25.0,70,30.22,10.0,ENE,3.5,-,N/A,,Overcast,60,2012-11-03 15:53:00
12:53 PM,35.1,25.0,67,30.22,10.0,North,6.9,-,N/A,,Overcast,10,2012-11-03 16:53:00
1:53 PM,36.0,26.1,67,30.22,10.0,Variable,4.6,-,N/A,,Overcast,0,2012-11-03 17:53:00
2:53 PM,37.0,25.0,62,30.20,10.0,Calm,Calm,-,N/A,,Mostly Cloudy,0,2012-11-03 18:53:00
3:53 PM,37.0,25.0,62,30.21,10.0,WNW,8.1,-,N/A,,Mostly Cloudy,300,2012-11-03 19:53:00
4:53 PM,37.0,25.0,62,30.21,10.0,NW,9.2,-,N/A,,Mostly Cloudy,320,2012-11-03 20:53:00
5:26 PM,35.6,24.8,65,30.17,10.0,Variable,6.9,-,N/A,,Scattered Clouds,0,2012-11-03 21:26:00
5:53 PM,34.0,25.0,70,30.21,10.0,NNW,6.9,-,N/A,,Partly Cloudy,330,2012-11-03 21:53:00
6:53 PM,33.1,25.0,72,30.21,10.0,NNW,5.8,-,N/A,,Partly Cloudy,340,2012-11-03 22:53:00
7:53 PM,30.0,24.1,79,30.22,10.0,North,3.5,-,N/A,,Clear,360,2012-11-03 23:53:00
8:53 PM,30.0,24.1,79,30.23,10.0,North,3.5,-,N/A,,Clear,350,2012-11-04 00:53:00
9:36 PM,30.2,24.8,80,30.18,10.0,NNE,3.5,-,N/A,,Mostly Cloudy,20,2012-11-04 01:36:00
9:53 PM,30.9,24.1,76,30.23,10.0,NNE,5.8,-,N/A,,Overcast,20,2012-11-04 01:53:00
10:53 PM,30.9,24.1,76,30.24,10.0,NE,4.6,-,N/A,,Overcast,40,2012-11-04 02:53:00
11:53 PM,30.9,24.1,76,30.23,10.0,NE,4.6,-,N/A,,Overcast,50,2012-11-04 03:53:00